Wind_Speed
29 28 25 23 22 21 20 19 19 20 19 20 20 21 22 24 25 26 27 27 28 29 28 29 30 31 31 29 28 29 30 30 29 28 28 30 31 31 31 32 32 32 32
29 28 27 24 23 22 21 20 20 21 21 22 22 23 24 26 27 28 29 29 30 31 32 32 33 33 33 32 30 30 29 29 30 30 30 31 31 32 32 33 34 35 36
28 27 25 23 23 22 22 21 22 23 24 25 25 25 26 27 29 30 30 31 31 31 32 33 33 32 31 30 30 31 31 31 32 32 32 33 33 34 34 35 36 38 39
27 27 25 25 25 25 25 25 26 26 26 27 26 27 28 29 31 32 33 33 33 34 33 33 32 31 31 31 31 32 32 33 34 34 34 35 36 36 36 37 38 40 41
28 27 26 26 27 28 27 27 28 28 28 28 29 29 30 31 31 32 33 32 33 32 31 31 32 32 31 32 33 34 35 35 36 37 36 37 39 39 39 40 41 43 45
29 29 27 27 28 28 28 28 28 29 30 30 31 32 32 32 33 34 34 33 33 33 32 32 31 32 32 34 35 36 37 38 39 39 40 41 41 41 43 44 45 47 49
28 28 28 28 27 27 27 28 29 31 31 32 33 35 35 36 36 35 36 35 34 33 33 34 35 35 35 37 38 39 39 40 40 41 42 43 43 45 46 48 50 51 54
27 27 27 27 27 27 28 29 30 31 32 34 35 36 37 36 36 36 36 36 36 36 36 36 36 37 38 39 40 42 42 42 43 44 45 46 47 48 50 52 54 56 57
28 27 27 27 28 28 28 29 31 33 33 34 35 36 35 36 37 37 37 38 38 38 38 38 38 39 41 42 43 45 45 44 45 46 47 47 49 50 52 54 55 56 56
26 26 27 27 28 29 30 31 32 34 35 35 35 35 36 37 38 39 39 39 39 39 39 40 41 42 43 44 45 46 46 46 46 47 47 49 50 52 53 53 54 55 55
26 27 28 29 30 31 32 33 34 35 35 36 36 37 39 40 39 39 40 40 39 40 41 43 44 45 45 45 46 45 45 46 47 47 48 49 50 51 51 51 52 53 54
26 27 28 28 29 30 32 33 35 35 36 37 38 39 40 40 39 39 40 40 41 42 43 44 44 45 45 45 45 45 46 47 46 47 48 48 49 50 50 50 51 50 50
24 26 27 28 29 30 32 33 34 36 37 38 38 39 39 39 39 40 41 41 42 44 45 45 45 45 45 45 44 45 45 46 46 46 47 48 48 48 48 48 47 45 44
25 26 27 29 30 31 32 33 35 36 37 38 38 38 39 40 40 40 42 43 43 44 45 44 43 43 43 43 43 43 44 44 45 45 45 45 45 45 44 43 42 41 40
25 27 28 29 30 32 33 34 35 35 36 37 37 38 38 39 40 41 41 42 42 41 41 41 40 40 40 41 42 42 43 43 43 43 42 42 41 41 40 39 38 38 37
26 27 28 29 30 32 33 34 35 35 36 36 36 37 37 38 38 38 38 37 37 37 37 37 38 38 38 39 40 40 40 40 39 39 38 38 37 36 35 34 34 33 32
26 27 28 30 31 31 31 31 32 34 34 34 34 34 34 34 34 34 34 33 34 34 35 35 36 36 37 37 37 36 36 35 35 35 34 33 32 30 29 29 27 26 25
26 27 27 28 27 27 27 28 29 30 30 31 31 31 31 31 31 30 30 31 31 32 32 33 33 33 33 33 33 32 32 31 30 29 28 27 26 25 25 23 22 21 22
25 25 24 23 23 24 25 26 26 26 26 27 27 27 27 28 28 28 28 29 29 29 29 30 31 31 30 30 29 28 27 26 25 24 23 22 21 21 20 19 19 20 20
24 24 22 22 22 22 22 21 21 22 23 24 25 25 26 26 26 27 27 27 28 28 28 28 28 27 26 26 25 23 22 21 20 19 19 18 18 18 18 18 18 18 18
22 21 21 20 20 20 19 20 20 21 22 23 23 24 24 25 25 25 26 26 26 26 25 25 24 23 23 22 20 19 18 17 16 16 16 16 16 16 16 17 17 17 17
18 18 18 18 18 18 19 19 20 20 21 21 21 22 22 23 23 23 23 22 22 23 22 22 21 20 19 18 16 15 15 14 14 14 14 14 14 15 16 16 17 17 17
16 16 16 16 16 17 17 18 18 19 19 19 20 20 20 20 20 20 20 20 20 20 19 19 18 17 15 14 13 13 12 12 12 12 12 13 14 15 15 16 16 17 17
14 14 15 15 16 16 16 17 18 18 17 18 18 17 17 17 17 18 18 18 18 17 16 15 14 13 12 11 10 10 10 10 11 11 12 13 14 14 15 16 16 17 17
13 13 14 14 15 15 16 16 16 15 15 15 15 16 15 15 16 16 16 15 15 14 13 12 11 10 10 9 9 9 9 10 10 11 12 14 15 15 16 15 15 16 16
11 11 12 12 13 13 14 14 14 14 14 15 14 14 14 14 14 13 13 12 12 11 11 10 9 9 8 8 8 8 8 9 10 11 12 13 14 15 15 15 15 16 16
Wind_Direction
239 241 243 239 245 248 252 258 263 266 267 267 267 269 268 269 268 266 266 269 272 275 277 279 283 284 283 284 285 288 289 291 293 294 293 291 290 289 286 283 284 283 282
235 238 239 241 245 248 253 256 264 269 269 271 271 272 273 275 275 274 275 274 274 276 276 277 278 283 285 286 290 291 293 294 294 294 293 292 290 289 287 285 285 284 282
237 240 239 241 249 252 257 261 265 268 270 271 272 275 277 279 280 278 278 278 279 279 278 281 283 286 288 289 290 292 295 295 294 293 292 290 288 288 287 286 285 284 282
239 242 243 247 250 252 256 261 264 265 269 272 271 275 278 279 282 282 282 282 284 285 287 287 288 291 289 290 290 293 295 293 293 293 292 291 290 289 287 286 286 284 281
241 243 245 246 248 252 256 259 262 265 268 272 274 277 280 280 282 286 288 289 288 290 293 294 293 291 292 292 293 294 295 294 293 293 293 291 291 291 290 289 288 286 284
240 244 246 247 250 254 258 260 261 264 268 272 277 279 282 285 288 293 294 296 293 292 293 293 295 295 295 294 294 294 294 295 295 294 293 292 292 292 291 290 289 288 286
242 244 245 248 252 256 258 260 263 265 269 273 275 278 282 285 289 291 293 296 295 293 293 293 297 296 296 296 296 295 295 295 295 295 294 292 292 292 291 290 290 289 287
243 244 247 249 252 256 258 260 263 266 268 272 274 278 281 284 289 290 291 293 293 292 293 294 295 294 295 295 295 295 295 294 294 293 292 291 292 292 291 290 290 288 287
243 245 248 250 252 255 258 260 262 266 268 271 275 278 280 284 286 288 290 291 291 292 292 292 291 291 293 293 292 293 293 292 293 293 292 292 293 293 292 291 290 289 288
245 246 249 251 253 256 259 262 263 266 268 271 274 278 280 283 285 287 288 288 288 289 291 291 292 291 290 291 291 291 292 293 293 293 293 294 294 294 293 292 290 290 289
246 247 249 252 255 258 260 262 265 267 268 270 274 277 280 282 284 285 286 287 286 287 287 287 289 289 289 291 292 292 293 293 293 294 294 294 295 294 293 292 292 291 291
247 248 251 255 257 259 261 264 266 267 269 271 274 276 278 279 281 282 283 283 283 285 286 287 288 289 290 290 290 292 294 293 294 294 294 295 295 295 294 294 293 293 293
250 251 254 257 260 263 266 268 269 270 271 273 274 275 276 277 279 280 281 282 283 284 285 287 288 288 289 292 293 294 295 295 296 296 296 296 297 296 296 296 296 296 297
256 258 260 261 263 266 268 269 270 271 272 273 274 276 276 278 280 281 282 282 283 285 285 286 287 289 291 293 295 296 296 297 297 297 298 298 298 298 298 298 298 299 299
261 263 265 266 267 268 269 270 271 272 272 272 273 276 276 278 279 280 281 282 284 285 285 287 289 292 293 295 296 297 298 298 298 299 299 299 300 300 301 300 301 301 301
268 268 268 270 271 272 272 272 272 272 272 272 272 273 275 277 279 280 281 283 284 286 288 291 292 293 294 296 298 299 299 300 300 301 301 302 302 303 303 303 304 304 305
271 270 269 271 272 272 271 273 272 272 272 272 272 274 276 278 279 281 283 285 287 289 291 291 293 294 297 298 299 301 302 302 302 303 304 305 306 306 308 309 310 312 314
273 271 270 271 272 274 276 279 277 276 276 277 277 278 280 283 284 285 286 288 289 291 292 293 295 296 297 299 300 302 303 304 306 307 309 311 312 313 315 317 319 321 322
273 273 276 278 280 281 282 281 281 282 283 283 284 284 286 289 289 289 289 291 291 292 294 295 296 298 298 299 301 304 306 308 310 314 316 317 318 321 323 325 327 329 330
276 280 281 283 285 285 284 284 284 286 286 287 286 286 287 288 289 290 291 292 292 292 293 294 296 297 299 300 303 305 307 310 314 318 321 322 325 328 330 332 335 337 339
282 280 282 283 284 284 285 284 285 288 289 289 288 288 288 290 291 292 292 292 293 293 295 295 296 298 299 301 304 306 309 314 318 322 324 327 328 332 334 336 339 342 344
285 285 284 286 287 288 289 290 290 290 291 291 292 291 292 294 294 293 293 293 294 295 296 297 298 298 300 301 304 307 311 315 319 324 328 331 332 334 337 340 343 345 347
292 291 291 291 291 293 293 294 294 294 294 296 296 295 296 297 296 296 297 297 297 297 297 297 298 299 300 302 305 308 313 318 322 326 329 331 333 336 339 341 343 345 347
297 298 297 297 297 297 298 298 298 298 298 299 300 299 300 302 304 303 301 300 298 298 298 298 298 298 300 302 305 310 314 319 323 327 330 332 335 337 338 339 340 341 343
305 303 301 299 299 300 301 302 302 303 303 305 304 304 304 305 305 305 305 305 302 301 299 298 297 299 301 304 308 312 315 319 325 329 332 334 335 335 336 337 338 338 338
319 316 313 312 313 314 313 311 310 308 307 307 307 307 307 307 308 309 309 310 309 306 304 300 299 302 304 306 310 314 318 321 324 328 332 333 333 334 335 337 338 338 337
Height
5836 5837 5839 5840 5844 5848 5850 5851 5852 5853 5855 5855 5856 5857 5858 5858 5859 5859 5859 5860 5860 5860 5860 5860 5859 5858 5857 5856 5855 5854 5853 5852 5850 5849 5847 5846 5845 5844 5842 5841 5840 5838 5836
5831 5833 5834 5837 5840 5843 5845 5847 5848 5849 5850 5851 5852 5852 5853 5853 5854 5854 5853 5853 5853 5853 5853 5853 5852 5851 5851 5850 5849 5847 5846 5845 5844 5842 5840 5840 5839 5837 5835 5834 5832 5831 5829
5825 5827 5828 5832 5837 5839 5841 5843 5844 5845 5846 5847 5847 5847 5848 5848 5848 5848 5848 5847 5846 5845 5845 5845 5845 5844 5843 5843 5842 5841 5839 5838 5837 5835 5833 5832 5831 5829 5828 5826 5824 5822 5820
5822 5824 5827 5830 5833 5834 5837 5838 5839 5840 5841 5842 5842 5843 5843 5842 5842 5842 5841 5840 5840 5839 5839 5839 5838 5837 5836 5836 5835 5833 5832 5831 5829 5828 5826 5824 5822 5820 5818 5816 5814 5812 5810
5819 5821 5824 5826 5828 5829 5831 5833 5834 5835 5836 5837 5837 5837 5837 5836 5836 5836 5835 5834 5834 5833 5833 5832 5831 5830 5829 5828 5827 5826 5824 5822 5821 5819 5817 5814 5812 5810 5808 5806 5804 5801 5798
5815 5817 5820 5822 5823 5824 5826 5827 5829 5830 5831 5831 5832 5831 5830 5829 5829 5829 5828 5828 5827 5826 5825 5825 5824 5823 5821 5820 5819 5817 5815 5813 5811 5809 5807 5805 5802 5800 5797 5794 5792 5789 5785
5810 5812 5815 5817 5818 5819 5820 5822 5823 5824 5825 5826 5826 5826 5825 5824 5823 5823 5822 5821 5820 5818 5817 5817 5815 5814 5813 5811 5810 5808 5806 5804 5801 5799 5796 5794 5791 5788 5785 5782 5779 5776 5772
5805 5807 5809 5811 5813 5814 5815 5816 5817 5818 5819 5820 5820 5819 5819 5818 5817 5816 5815 5814 5813 5811 5810 5809 5807 5806 5804 5802 5800 5799 5796 5794 5791 5789 5786 5783 5780 5776 5773 5769 5765 5761 5757
5800 5802 5804 5805 5807 5808 5809 5810 5811 5812 5812 5813 5813 5813 5812 5811 5810 5809 5808 5806 5805 5803 5802 5801 5799 5797 5795 5793 5791 5789 5786 5784 5781 5778 5774 5771 5767 5763 5759 5754 5750 5746 5741
5795 5797 5798 5800 5801 5802 5803 5804 5804 5805 5805 5806 5806 5805 5804 5803 5802 5801 5799 5798 5797 5795 5793 5792 5790 5788 5786 5784 5781 5779 5776 5773 5769 5766 5762 5758 5754 5749 5744 5740 5734 5729 5725
5789 5791 5792 5794 5795 5795 5796 5797 5797 5797 5797 5797 5797 5797 5796 5795 5794 5792 5790 5789 5787 5786 5784 5782 5780 5778 5776 5773 5771 5768 5765 5761 5758 5754 5750 5745 5741 5736 5731 5725 5720 5714 5709
5783 5785 5786 5787 5788 5788 5789 5789 5789 5789 5789 5788 5788 5788 5787 5786 5785 5783 5781 5780 5778 5777 5774 5772 5770 5768 5765 5762 5760 5757 5754 5750 5746 5742 5738 5733 5728 5723 5717 5711 5705 5700 5694
5777 5778 5779 5780 5780 5781 5781 5781 5780 5780 5780 5779 5779 5778 5777 5776 5775 5774 5772 5770 5768 5767 5764 5762 5760 5758 5755 5752 5749 5746 5743 5739 5734 5730 5725 5720 5715 5710 5704 5698 5692 5686 5681
5771 5771 5772 5772 5772 5772 5772 5772 5771 5771 5771 5770 5769 5768 5767 5766 5765 5763 5762 5760 5759 5757 5754 5752 5750 5747 5744 5742 5739 5735 5732 5727 5723 5718 5713 5708 5702 5697 5691 5686 5680 5675 5669
5763 5764 5764 5764 5764 5764 5763 5763 5762 5762 5761 5760 5760 5759 5758 5756 5755 5754 5752 5750 5748 5746 5744 5742 5740 5737 5734 5731 5728 5725 5721 5717 5712 5707 5702 5696 5691 5686 5680 5675 5670 5664 5659
5756 5756 5756 5756 5756 5755 5754 5754 5753 5753 5752 5751 5750 5749 5748 5747 5746 5744 5742 5740 5739 5737 5735 5732 5730 5728 5724 5721 5718 5714 5711 5706 5701 5696 5691 5686 5681 5676 5671 5666 5660 5655 5651
5749 5749 5748 5748 5747 5746 5745 5745 5745 5744 5743 5742 5741 5740 5739 5738 5736 5735 5733 5731 5730 5728 5726 5723 5721 5718 5715 5712 5708 5705 5701 5696 5692 5687 5682 5677 5673 5668 5663 5658 5653 5648 5644
5742 5741 5740 5740 5740 5739 5738 5738 5737 5736 5735 5734 5733 5731 5730 5729 5728 5726 5724 5723 5721 5719 5717 5714 5712 5709 5706 5703 5700 5696 5692 5688 5684 5679 5674 5670 5666 5662 5657 5652 5648 5643 5639
5735 5735 5733 5733 5732 5732 5731 5731 5730 5729 5727 5726 5725 5724 5723 5721 5720 5718 5716 5714 5712 5711 5708 5706 5703 5701 5698 5695 5692 5689 5685 5681 5677 5673 5669 5665 5661 5657 5653 5649 5644 5640 5636
5729 5729 5727 5727 5726 5726 5725 5724 5723 5722 5721 5720 5718 5717 5716 5714 5712 5711 5709 5707 5705 5702 5700 5698 5695 5693 5690 5688 5685 5682 5679 5676 5672 5669 5665 5661 5658 5654 5650 5646 5642 5638 5634
5724 5723 5722 5722 5721 5720 5719 5719 5717 5716 5715 5714 5712 5710 5709 5707 5705 5703 5701 5699 5697 5695 5693 5690 5688 5686 5684 5681 5679 5676 5674 5671 5668 5665 5662 5659 5655 5652 5648 5644 5640 5636 5632
5719 5718 5718 5717 5716 5715 5714 5713 5712 5710 5709 5707 5706 5704 5702 5700 5698 5696 5694 5692 5690 5688 5686 5684 5682 5680 5678 5676 5674 5672 5670 5667 5665 5662 5660 5657 5654 5650 5647 5643 5639 5635 5631
5715 5714 5713 5712 5711 5710 5709 5708 5706 5705 5703 5701 5700 5698 5696 5694 5692 5690 5688 5685 5684 5682 5681 5679 5677 5675 5674 5672 5670 5668 5666 5664 5662 5660 5658 5655 5652 5648 5645 5641 5637 5634 5630
5712 5711 5710 5708 5707 5706 5704 5703 5701 5699 5698 5696 5694 5692 5690 5688 5686 5684 5682 5680 5679 5677 5676 5674 5673 5672 5670 5669 5667 5665 5664 5662 5660 5658 5656 5653 5650 5647 5643 5640 5636 5632 5629
5709 5707 5706 5705 5703 5702 5700 5698 5696 5694 5693 5691 5689 5688 5686 5684 5682 5680 5678 5676 5674 5673 5672 5670 5669 5668 5667 5666 5665 5663 5662 5660 5658 5656 5654 5651 5648 5645 5642 5638 5635 5631 5628
5707 5705 5703 5701 5699 5698 5696 5694 5692 5690 5688 5687 5685 5683 5681 5680 5678 5676 5674 5672 5671 5669 5668 5667 5667 5666 5665 5664 5662 5661 5660 5658 5657 5654 5652 5649 5646 5643 5640 5637 5633 5630 5626